Location: ?
(35.4554°N, 139.3092°E)
Time: 22:37:49
(UTC+00:00)

Cosmos 2297 - Pass Details

Date: 21 April 2021
Orbit: 837 x 857 km, 71.0° (Epoch: 10 May)

Event Time Altitude Azimuth Distance (km) Brightness Sun altitude
Exits shadow 17:20:09 67° 345° (NNW) 927 3.9 -29.4°
Drops below altitude 10° 17:25:12 10° 18° (NNE) 2,487 6.9 -28.7°
Sets 17:27:40 0° 20° (NNE) 3,423 7.8 -28.3°
